owner,sensor,date,latitude,longitude,vertical_datum,direction_of_sea_water_velocity,sea_water_speed,upward_sea_water_velocity,qcFlag 
TABS,ioos:station:wmo:42050:1,2007-05-01T00:30:00Z,28.8425,-94.2433,2.0,224.9996843,2.998132752,-99999.0,'11133222,11111222,99999999' 
TABS,ioos:station:wmo:42050:1,2007-05-01T01:00:00Z,28.8425,-94.2433,2.0,224.9996843,4.002224382,-99999.0,'11133222,11111222,99999999' 
TABS,ioos:station:wmo:42050:1,2007-05-01T01:30:00Z,28.8425,-94.2433,2.0,335.9359058,3.997424171,-99999.0,'11133222,11111222,99999999' 
TABS,ioos:station:wmo:42050:1,2007-05-01T02:00:00Z,28.8425,-94.2433,2.0,245.034611,4.004122875,-99999.0,'11133222,11111222,99999999' 
TABS,ioos:station:wmo:42050:1,2007-05-01T02:30:00Z,28.8425,-94.2433,2.0,285.0795196,3.997649309,-99999.0,'11133222,11111222,99999999' 
TABS,ioos:station:wmo:42050:1,2007-05-01T03:00:00Z,28.8425,-94.2433,2.0,330.0186412,6.003332408,-99999.0,'11133222,11111222,99999999' 
TABS,ioos:station:wmo:42050:1,2007-05-01T03:30:00Z,28.8425,-94.2433,2.0,337.9861545,8.003524224,-99999.0,'11133222,11111222,99999999' 
TABS,ioos:station:wmo:42050:1,2007-05-01T04:00:00Z,28.8425,-94.2433,2.0,334.995961,11.00106358,-99999.0,'11111222,11111222,99999999' 
TABS,ioos:station:wmo:42050:1,2007-05-01T04:30:00Z,28.8425,-94.2433,2.0,344.9916963,11.00542593,-99999.0,'11111222,11111222,99999999' 
TABS,ioos:station:wmo:42050:1,2007-05-01T05:00:00Z,28.8425,-94.2433,2.0,335.9989856,11.99733304,-99999.0,'11111222,11111222,99999999' 
TABS,ioos:station:wmo:42050:1,2007-05-01T05:30:00Z,28.8425,-94.2433,2.0,346.997572,16.00025312,-99999.0,'11111222,11111222,99999999' 
TABS,ioos:station:wmo:42050:1,2007-05-01T06:00:00Z,28.8425,-94.2433,2.0,13.99672436,21.00359017,-99999.0,'11111222,11111222,99999999' 
TABS,ioos:station:wmo:42050:1,2007-05-01T06:30:00Z,28.8425,-94.2433,2.0,3.009979162,19.99758485,-99999.0,'11111222,11111222,99999999' 
TABS,ioos:station:wmo:42050:1,2007-05-01T07:00:00Z,28.8425,-94.2433,2.0,5.004410987,17.9986055,-99999.0,'11111222,11111222,99999999' 
TABS,ioos:station:wmo:42050:1,2007-05-01T07:30:00Z,28.8425,-94.2433,2.0,30.00086808,19.99956,-99999.0,'11111222,11111222,99999999' 
TABS,ioos:station:wmo:42050:1,2007-05-01T08:00:00Z,28.8425,-94.2433,2.0,12.00689069,19.99747984,-99999.0,'11111222,11111222,99999999' 
TABS,ioos:station:wmo:42050:1,2007-05-01T08:30:00Z,28.8425,-94.2433,2.0,17.01422371,19.00164467,-99999.0,'11111222,11111222,99999999' 
TABS,ioos:station:wmo:42050:1,2007-05-01T09:00:00Z,28.8425,-94.2433,2.0,13.98738762,17.0041789,-99999.0,'11111222,11111222,99999999' 
TABS,ioos:station:wmo:42050:1,2007-05-01T09:30:00Z,28.8425,-94.2433,2.0,12.00689069,14.99810988,-99999.0,'11111222,11111222,99999999' 
TABS,ioos:station:wmo:42050:1,2007-05-01T10:00:00Z,28.8425,-94.2433,2.0,24.00290423,13.00455689,-99999.0,'11111222,11111222,99999999' 
TABS,ioos:station:wmo:42050:1,2007-05-01T10:30:00Z,28.8425,-94.2433,2.0,24.00290423,13.00455689,-99999.0,'11111222,11111222,99999999' 
TABS,ioos:station:wmo:42050:1,2007-05-01T11:00:00Z,28.8425,-94.2433,2.0,18.00024296,9.999409983,-99999.0,'11133222,11111222,99999999' 
TABS,ioos:station:wmo:42050:1,2007-05-01T11:30:00Z,28.8425,-94.2433,2.0,27.02059496,9.002694041,-99999.0,'11133222,11111222,99999999' 
TABS,ioos:station:wmo:42050:1,2007-05-01T12:00:00Z,28.8425,-94.2433,2.0,18.00024296,9.999409983,-99999.0,'11133222,11111222,99999999' 
TABS,ioos:station:wmo:42050:1,2007-05-01T12:30:00Z,28.8425,-94.2433,2.0,22.97287807,4.996248593,-99999.0,'11133222,11111222,99999999' 
TABS,ioos:station:wmo:42050:1,2007-05-01T13:00:00Z,28.8425,-94.2433,2.0,23.96991534,7.9999125,-99999.0,'11133222,11111222,99999999' 
TABS,ioos:station:wmo:42050:1,2007-05-01T13:30:00Z,28.8425,-94.2433,2.0,21.03310144,8.999605547,-99999.0,'11133222,11111222,99999999' 
TABS,ioos:station:wmo:42050:1,2007-05-01T14:00:00Z,28.8425,-94.2433,2.0,40.9974567,8.002755775,-99999.0,'11133222,11111222,99999999' 
TABS,ioos:station:wmo:42050:1,2007-05-01T14:30:00Z,28.8425,-94.2433,2.0,52.9964544,5.998016339,-99999.0,'11133222,11111222,99999999' 
TABS,ioos:station:wmo:42050:1,2007-05-01T15:00:00Z,28.8425,-94.2433,2.0,51.03825792,7.999331222,-99999.0,'11133222,11111222,99999999' 
TABS,ioos:station:wmo:42050:1,2007-05-01T15:30:00Z,28.8425,-94.2433,2.0,51.03825792,7.999331222,-99999.0,'11133222,11111222,99999999' 
TABS,ioos:station:wmo:42050:1,2007-05-01T16:00:00Z,28.8425,-94.2433,2.0,30.00086808,9.999779998,-99999.0,'11133222,11111222,99999999' 
TABS,ioos:station:wmo:42050:1,2007-05-01T16:30:00Z,28.8425,-94.2433,2.0,14.9915495,8.002362151,-99999.0,'11133222,11111222,99999999' 
TABS,ioos:station:wmo:42050:1,2007-05-01T17:00:00Z,28.8425,-94.2433,2.0,18.00024296,9.999409983,-99999.0,'11133222,11111222,99999999' 
TABS,ioos:station:wmo:42050:1,2007-05-01T17:30:00Z,28.8425,-94.2433,2.0,14.0165647,13.99673176,-99999.0,'11111222,11111222,99999999' 
TABS,ioos:station:wmo:42050:1,2007-05-01T18:00:00Z,28.8425,-94.2433,2.0,8.984272929,12.99948076,-99999.0,'11111222,11111222,99999999' 
TABS,ioos:station:wmo:42050:1,2007-05-01T18:30:00Z,28.8425,-94.2433,2.0,21.11768923,11.82406445,-99999.0,'11111222,11111222,99999999' 
TABS,ioos:station:wmo:42050:1,2007-05-01T19:00:00Z,28.8425,-94.2433,2.0,21.25686542,9.571170252,-99999.0,'11133222,11111222,99999999' 
TABS,ioos:station:wmo:42050:1,2007-05-01T19:30:00Z,28.8425,-94.2433,2.0,7.896979489,12.15526635,-99999.0,'11111222,11111222,99999999' 
TABS,ioos:station:wmo:42050:1,2007-05-01T20:00:00Z,28.8425,-94.2433,2.0,20.95070609,10.87923251,-99999.0,'11111222,11111222,99999999' 
TABS,ioos:station:wmo:42050:1,2007-05-01T20:30:00Z,28.8425,-94.2433,2.0,35.81958474,7.091191719,-99999.0,'11133222,11111222,99999999' 
TABS,ioos:station:wmo:42050:1,2007-05-01T21:00:00Z,28.8425,-94.2433,2.0,27.1779638,4.181686263,-99999.0,'11133222,11111222,99999999' 
TABS,ioos:station:wmo:42050:1,2007-05-01T21:30:00Z,28.8425,-94.2433,2.0,35.49204186,2.910841803,-99999.0,'11133222,11111222,99999999' 
TABS,ioos:station:wmo:42050:1,2007-05-01T22:00:00Z,28.8425,-94.2433,2.0,75.96378935,2.144014925,-99999.0,'11133222,11111222,99999999' 
TABS,ioos:station:wmo:42050:1,2007-05-01T22:30:00Z,28.8425,-94.2433,2.0,157.4110405,2.837692725,-99999.0,'11133222,11111222,99999999' 
TABS,ioos:station:wmo:42050:1,2007-05-01T23:00:00Z,28.8425,-94.2433,2.0,144.5415883,2.516763795,-99999.0,'11133222,11111222,99999999' 
TABS,ioos:station:wmo:42050:1,2007-05-01T23:30:00Z,28.8425,-94.2433,2.0,201.0759254,4.254621017,-99999.0,'11133222,11111222,99999999' 
TABS,ioos:station:wmo:42050:1,2007-05-02T00:00:00Z,28.8425,-94.2433,2.0,231.0561391,5.361510981,-99999.0,'11133222,11111222,99999999' 
TABS,ioos:station:wmo:42050:1,2007-05-02T00:30:00Z,28.8425,-94.2433,2.0,218.8451606,6.26572422,-99999.0,'11133222,11111222,99999999' 
TABS,ioos:station:wmo:42050:1,2007-05-02T01:00:00Z,28.8425,-94.2433,2.0,243.0740387,7.817448433,-99999.0,'11133222,11111222,99999999' 
TABS,ioos:station:wmo:42050:1,2007-05-02T01:30:00Z,28.8425,-94.2433,2.0,247.8482045,7.903341066,-99999.0,'11133222,11111222,99999999' 
TABS,ioos:station:wmo:42050:1,2007-05-02T02:00:00Z,28.8425,-94.2433,2.0,306.7455865,5.516013053,-99999.0,'11133222,11111222,99999999' 
TABS,ioos:station:wmo:42050:1,2007-05-02T02:30:00Z,28.8425,-94.2433,2.0,295.6111389,7.518703346,-99999.0,'11133222,11111222,99999999' 
TABS,ioos:station:wmo:42050:1,2007-05-02T03:00:00Z,28.8425,-94.2433,2.0,325.901902,8.56201495,-99999.0,'11133222,11111222,99999999' 
TABS,ioos:station:wmo:42050:1,2007-05-02T03:30:00Z,28.8425,-94.2433,2.0,327.2878682,10.56580333,-99999.0,'11111222,11111222,99999999' 
TABS,ioos:station:wmo:42050:1,2007-05-02T04:00:00Z,28.8425,-94.2433,2.0,338.9470279,13.08335202,-99999.0,'11111222,11111222,99999999' 
TABS,ioos:station:wmo:42050:1,2007-05-02T04:30:00Z,28.8425,-94.2433,2.0,332.4155037,13.82108896,-99999.0,'11111222,11111222,99999999' 
TABS,ioos:station:wmo:42050:1,2007-05-02T05:00:00Z,28.8425,-94.2433,2.0,330.6022542,17.82535834,-99999.0,'11111222,11111222,99999999' 
TABS,ioos:station:wmo:42050:1,2007-05-02T05:30:00Z,28.8425,-94.2433,2.0,342.8123718,20.77792338,-99999.0,'11111222,11111222,99999999' 
TABS,ioos:station:wmo:42050:1,2007-05-02T06:00:00Z,28.8425,-94.2433,2.0,343.9726675,23.94059732,-99999.0,'11111222,11111222,99999999' 
TABS,ioos:station:wmo:42050:1,2007-05-02T06:30:00Z,28.8425,-94.2433,2.0,339.4153897,23.26544218,-99999.0,'11111222,11111222,99999999' 
TABS,ioos:station:wmo:42050:1,2007-05-02T07:00:00Z,28.8425,-94.2433,2.0,331.1919527,20.33697126,-99999.0,'11111222,11111222,99999999' 
TABS,ioos:station:wmo:42050:1,2007-05-02T07:30:00Z,28.8425,-94.2433,2.0,334.4495474,19.45236747,-99999.0,'11111222,11111222,99999999' 
TABS,ioos:station:wmo:42050:1,2007-05-02T08:00:00Z,28.8425,-94.2433,2.0,330.3435088,17.74443011,-99999.0,'11111222,11111222,99999999' 
TABS,ioos:station:wmo:42050:1,2007-05-03T04:30:00Z,28.8425,-94.2433,2.0,312.4415758,26.45095272,-99999.0,'11111222,11111222,99999999' 
TABS,ioos:station:wmo:42050:1,2007-05-03T05:00:00Z,28.8425,-94.2433,2.0,315.7877799,25.21073779,-99999.0,'11111222,11111222,99999999' 
TABS,ioos:station:wmo:42050:1,2007-05-03T05:30:00Z,28.8425,-94.2433,2.0,322.379695,26.86630604,-99999.0,'11111222,11111222,99999999' 
TABS,ioos:station:wmo:42050:1,2007-05-03T06:00:00Z,28.8425,-94.2433,2.0,327.9473282,25.53217774,-99999.0,'11111222,11111222,99999999' 
TABS,ioos:station:wmo:42050:1,2007-05-03T06:30:00Z,28.8425,-94.2433,2.0,328.4089599,25.5222354,-99999.0,'11111222,11111222,99999999' 
TABS,ioos:station:wmo:42050:1,2007-05-03T07:00:00Z,28.8425,-94.2433,2.0,331.5373744,24.17173763,-99999.0,'11111222,11111222,99999999' 
TABS,ioos:station:wmo:42050:1,2007-05-03T07:30:00Z,28.8425,-94.2433,2.0,330.770111,22.50577037,-99999.0,'11111222,11111222,99999999' 
TABS,ioos:station:wmo:42050:1,2007-05-03T08:00:00Z,28.8425,-94.2433,2.0,336.5238456,21.66318998,-99999.0,'11111222,11111222,99999999' 
TABS,ioos:station:wmo:42050:1,2007-05-03T08:30:00Z,28.8425,-94.2433,2.0,336.1258825,19.14843597,-99999.0,'11111222,11111222,99999999' 
TABS,ioos:station:wmo:42050:1,2007-05-03T09:00:00Z,28.8425,-94.2433,2.0,337.0158399,18.61806918,-99999.0,'11111222,11111222,99999999' 
TABS,ioos:station:wmo:42050:1,2007-05-03T09:30:00Z,28.8425,-94.2433,2.0,331.8413476,15.5959001,-99999.0,'11111222,11111222,99999999' 
TABS,ioos:station:wmo:42050:1,2007-05-03T10:00:00Z,28.8425,-94.2433,2.0,328.1517483,14.32698503,-99999.0,'11111222,11111222,99999999' 
TABS,ioos:station:wmo:42050:1,2007-05-03T10:30:00Z,28.8425,-94.2433,2.0,331.6031571,13.28903683,-99999.0,'11111222,11111222,99999999' 
TABS,ioos:station:wmo:42050:1,2007-05-03T11:00:00Z,28.8425,-94.2433,2.0,322.9714971,10.09603883,-99999.0,'11111222,11111222,99999999' 
TABS,ioos:station:wmo:42050:1,2007-05-03T11:30:00Z,28.8425,-94.2433,2.0,306.4981879,7.700162336,-99999.0,'11133222,11111222,99999999' 
TABS,ioos:station:wmo:42050:1,2007-05-03T12:00:00Z,28.8425,-94.2433,2.0,306.740897,5.316013544,-99999.0,'11133222,11111222,99999999' 
TABS,ioos:station:wmo:42050:1,2007-05-03T12:30:00Z,28.8425,-94.2433,2.0,317.5272163,7.538016981,-99999.0,'11133222,11111222,99999999' 
TABS,ioos:station:wmo:42050:1,2007-05-03T13:00:00Z,28.8425,-94.2433,2.0,283.9739106,4.431128524,-99999.0,'11133222,11111222,99999999' 
TABS,ioos:station:wmo:42050:1,2007-05-03T13:30:00Z,28.8425,-94.2433,2.0,266.3857068,8.56703566,-99999.0,'11133222,11111222,99999999' 
TABS,ioos:station:wmo:42050:1,2007-05-03T14:00:00Z,28.8425,-94.2433,2.0,287.5758516,8.64347731,-99999.0,'11133222,11111222,99999999' 
TABS,ioos:station:wmo:42050:1,2007-05-03T14:30:00Z,28.8425,-94.2433,2.0,291.0512748,9.214993218,-99999.0,'11133222,11111222,99999999' 
TABS,ioos:station:wmo:42050:1,2007-05-03T15:00:00Z,28.8425,-94.2433,2.0,294.8402906,11.73573176,-99999.0,'11111222,11111222,99999999' 
TABS,ioos:station:wmo:42050:1,2007-05-03T15:30:00Z,28.8425,-94.2433,2.0,294.6577397,11.55345836,-99999.0,'11111222,11111222,99999999' 
TABS,ioos:station:wmo:42050:1,2007-05-03T16:00:00Z,28.8425,-94.2433,2.0,303.0097723,13.30819672,-99999.0,'11111222,11111222,99999999' 
TABS,ioos:station:wmo:42050:1,2007-05-03T16:30:00Z,28.8425,-94.2433,2.0,305.9338341,9.42325846,-99999.0,'11133222,11111222,99999999' 
TABS,ioos:station:wmo:42050:1,2007-05-03T17:00:00Z,28.8425,-94.2433,2.0,301.4126145,9.420705918,-99999.0,'11133222,11111222,99999999' 
TABS,ioos:station:wmo:42050:1,2007-05-03T17:30:00Z,28.8425,-94.2433,2.0,320.500004,8.410862025,-99999.0,'11133222,11111222,99999999' 
TABS,ioos:station:wmo:42050:1,2007-05-03T18:00:00Z,28.8425,-94.2433,2.0,301.7363039,7.88965145,-99999.0,'11133222,11111222,99999999' 
TABS,ioos:station:wmo:42050:1,2007-05-03T18:30:00Z,28.8425,-94.2433,2.0,293.1887422,7.364977936,-99999.0,'11133222,11111222,99999999' 
TABS,ioos:station:wmo:42050:1,2007-05-03T19:00:00Z,28.8425,-94.2433,2.0,280.9455323,10.16490531,-99999.0,'11111222,11111222,99999999' 
TABS,ioos:station:wmo:42050:1,2007-05-03T19:30:00Z,28.8425,-94.2433,2.0,294.7755036,7.731623374,-99999.0,'11133222,11111222,99999999' 
TABS,ioos:station:wmo:42050:1,2007-05-03T20:00:00Z,28.8425,-94.2433,2.0,297.3564839,8.421834717,-99999.0,'11133222,11111222,99999999' 
TABS,ioos:station:wmo:42050:1,2007-05-03T20:30:00Z,28.8425,-94.2433,2.0,282.337228,7.769407957,-99999.0,'11133222,11111222,99999999' 
TABS,ioos:station:wmo:42050:1,2007-05-03T21:00:00Z,28.8425,-94.2433,2.0,276.4153697,9.308281259,-99999.0,'11133222,11111222,99999999' 
TABS,ioos:station:wmo:42050:1,2007-05-03T21:30:00Z,28.8425,-94.2433,2.0,302.7136826,9.436821499,-99999.0,'11133222,11111222,99999999' 
TABS,ioos:station:wmo:42050:1,2007-05-03T22:00:00Z,28.8425,-94.2433,2.0,292.195268,7.57097748,-99999.0,'11133222,11111222,99999999' 
TABS,ioos:station:wmo:42050:1,2007-05-03T22:30:00Z,28.8425,-94.2433,2.0,307.0957524,8.638066913,-99999.0,'11133222,11111222,99999999' 
TABS,ioos:station:wmo:42050:1,2007-05-03T23:00:00Z,28.8425,-94.2433,2.0,308.2586342,4.457308605,-99999.0,'11133222,11111222,99999999' 
TABS,ioos:station:wmo:42050:1,2007-05-03T23:30:00Z,28.8425,-94.2433,2.0,279.4904536,3.396483476,-99999.0,'11133222,11111222,99999999' 
TABS,ioos:station:wmo:42050:1,2007-05-04T00:00:00Z,28.8425,-94.2433,2.0,259.4535697,5.736906832,-99999.0,'11133222,11111222,99999999' 
TABS,ioos:station:wmo:42050:1,2007-05-04T00:30:00Z,28.8425,-94.2433,2.0,261.9326662,7.696154884,-99999.0,'11133222,11111222,99999999' 
TABS,ioos:station:wmo:42050:1,2007-05-04T01:00:00Z,28.8425,-94.2433,2.0,235.6856251,7.131093885,-99999.0,'11133222,11111222,99999999' 
TABS,ioos:station:wmo:42050:1,2007-05-04T01:30:00Z,28.8425,-94.2433,2.0,268.3006301,7.083113722,-99999.0,'11133222,11111222,99999999' 
TABS,ioos:station:wmo:42050:1,2007-05-04T02:00:00Z,28.8425,-94.2433,2.0,274.8903849,7.156046394,-99999.0,'11133222,11111222,99999999' 
TABS,ioos:station:wmo:42050:1,2007-05-04T02:30:00Z,28.8425,-94.2433,2.0,275.0223995,9.024644037,-99999.0,'11133222,11111222,99999999' 
TABS,ioos:station:wmo:42050:1,2007-05-04T03:00:00Z,28.8425,-94.2433,2.0,281.1998244,8.134912415,-99999.0,'11133222,11111222,99999999' 
TABS,ioos:station:wmo:42050:1,2007-05-04T03:30:00Z,28.8425,-94.2433,2.0,284.99176,8.002362151,-99999.0,'11133222,11111222,99999999' 
TABS,ioos:station:wmo:42050:1,2007-05-04T04:00:00Z,28.8425,-94.2433,2.0,291.0035945,5.998541489,-99999.0,'11133222,11111222,99999999' 
TABS,ioos:station:wmo:42050:1,2007-05-04T04:30:00Z,28.8425,-94.2433,2.0,270.0004209,5.0,-99999.0,'11133222,11111222,99999999' 
TABS,ioos:station:wmo:42050:1,2007-05-04T05:00:00Z,28.8425,-94.2433,2.0,237.0135442,6.998071163,-99999.0,'11133222,11111222,99999999' 
TABS,ioos:station:wmo:42050:1,2007-05-04T05:30:00Z,28.8425,-94.2433,2.0,252.04766,6.002216257,-99999.0,'11133222,11111222,99999999' 
TABS,ioos:station:wmo:42050:1,2007-05-04T06:00:00Z,28.8425,-94.2433,2.0,278.9916472,7.998281065,-99999.0,'11133222,11111222,99999999' 
TABS,ioos:station:wmo:42050:1,2007-05-04T06:30:00Z,28.8425,-94.2433,2.0,270.0004209,9.0,-99999.0,'11133222,11111222,99999999' 
TABS,ioos:station:wmo:42050:1,2007-05-04T07:00:00Z,28.8425,-94.2433,2.0,288.0004534,9.999409983,-99999.0,'11133222,11111222,99999999' 
TABS,ioos:station:wmo:42050:1,2007-05-04T07:30:00Z,28.8425,-94.2433,2.0,282.0071011,9.998739921,-99999.0,'11133222,11111222,99999999' 
TABS,ioos:station:wmo:42050:1,2007-05-04T08:00:00Z,28.8425,-94.2433,2.0,317.0312252,1.995294464,-99999.0,'11133222,11111222,99999999' 
TABS,ioos:station:wmo:42050:1,2007-05-04T08:30:00Z,28.8425,-94.2433,2.0,288.0004534,9.999409983,-99999.0,'11133222,11111222,99999999' 
TABS,ioos:station:wmo:42050:1,2007-05-04T09:00:00Z,28.8425,-94.2433,2.0,301.99561,6.00170809,-99999.0,'11133222,11111222,99999999' 
TABS,ioos:station:wmo:42050:1,2007-05-04T09:30:00Z,28.8425,-94.2433,2.0,270.0004209,7.0,-99999.0,'11133222,11111222,99999999' 
TABS,ioos:station:wmo:42050:1,2007-05-04T10:00:00Z,28.8425,-94.2433,2.0,273.0304099,6.999785711,-99999.0,'11133222,11111222,99999999' 
TABS,ioos:station:wmo:42050:1,2007-05-04T10:30:00Z,28.8425,-94.2433,2.0,287.9824061,8.000812459,-99999.0,'11133222,11111222,99999999' 
TABS,ioos:station:wmo:42050:1,2007-05-04T11:00:00Z,28.8425,-94.2433,2.0,270.0004209,7.0,-99999.0,'11133222,11111222,99999999' 
TABS,ioos:station:wmo:42050:1,2007-05-04T11:30:00Z,28.8425,-94.2433,2.0,263.9756001,8.004198898,-99999.0,'11133222,11111222,99999999' 
TABS,ioos:station:wmo:42050:1,2007-05-04T12:00:00Z,28.8425,-94.2433,2.0,308.0159925,5.0009999,-99999.0,'11133222,11111222,99999999' 
TABS,ioos:station:wmo:42050:1,2007-05-04T12:30:00Z,28.8425,-94.2433,2.0,232.9960335,5.998016339,-99999.0,'11133222,11111222,99999999' 
TABS,ioos:station:wmo:42050:1,2007-05-04T13:00:00Z,28.8425,-94.2433,2.0,232.9960335,5.998016339,-99999.0,'11133222,11111222,99999999' 
TABS,ioos:station:wmo:42050:1,2007-05-04T13:30:00Z,28.8425,-94.2433,2.0,232.9960335,5.998016339,-99999.0,'11133222,11111222,99999999' 
TABS,ioos:station:wmo:42050:1,2007-05-04T14:00:00Z,28.8425,-94.2433,2.0,218.0153611,5.0009999,-99999.0,'11133222,11111222,99999999' 
TABS,ioos:station:wmo:42050:1,2007-05-04T14:30:00Z,28.8425,-94.2433,2.0,202.9724572,4.996248593,-99999.0,'11133222,11111222,99999999' 
TABS,ioos:station:wmo:42050:1,2007-05-04T15:00:00Z,28.8425,-94.2433,2.0,207.0774776,3.998249617,-99999.0,'11133222,11111222,99999999' 
TABS,ioos:station:wmo:42050:1,2007-05-04T16:00:00Z,28.8425,-94.2433,2.0,192.0064698,4.99936996,-99999.0,'11133222,11111222,99999999' 
TABS,ioos:station:wmo:42050:1,2007-05-04T16:30:00Z,28.8425,-94.2433,2.0,169.9719042,4.996328652,-99999.0,'11133222,11111222,99999999' 
TABS,ioos:station:wmo:42050:1,2007-05-04T17:00:00Z,28.8425,-94.2433,2.0,170.9924563,6.004040306,-99999.0,'11133222,11111222,99999999' 
TABS,ioos:station:wmo:42050:1,2007-05-04T17:30:00Z,28.8425,-94.2433,2.0,173.9758105,8.004198898,-99999.0,'11133222,11111222,99999999' 
TABS,ioos:station:wmo:42050:1,2007-05-04T18:00:00Z,28.8425,-94.2433,2.0,162.0478705,6.002216257,-99999.0,'11133222,11111222,99999999' 
TABS,ioos:station:wmo:42050:1,2007-05-04T18:30:00Z,28.8425,-94.2433,2.0,166.9890892,7.995254843,-99999.0,'11133222,11111222,99999999' 
TABS,ioos:station:wmo:42050:1,2007-05-04T19:00:00Z,28.8425,-94.2433,2.0,174.0041276,8.999227745,-99999.0,'11133222,11111222,99999999' 
TABS,ioos:station:wmo:42050:1,2007-05-04T19:30:00Z,28.8425,-94.2433,2.0,175.9867371,9.002071984,-99999.0,'11133222,11111222,99999999' 
TABS,ioos:station:wmo:42050:1,2007-05-04T20:00:00Z,28.8425,-94.2433,2.0,177.0009102,12.99779981,-99999.0,'11111222,11111222,99999999' 
TABS,ioos:station:wmo:42050:1,2007-05-04T20:30:00Z,28.8425,-94.2433,2.0,179.9997895,18.0,-99999.0,'11111222,11111222,99999999' 
TABS,ioos:station:wmo:42050:1,2007-05-04T21:00:00Z,28.8425,-94.2433,2.0,92.86239853,2.002498439,-99999.0,'11133222,11111222,99999999' 
TABS,ioos:station:wmo:42050:1,2007-05-04T21:30:00Z,28.8425,-94.2433,2.0,185.9982847,19.99950499,-99999.0,'11111222,11111222,99999999' 
TABS,ioos:station:wmo:42050:1,2007-05-04T22:00:00Z,28.8425,-94.2433,2.0,270.0004209,9.0,-99999.0,'11133222,11111222,99999999' 
TABS,ioos:station:wmo:42050:1,2007-05-04T22:30:00Z,28.8425,-94.2433,2.0,194.9976007,25.00166794,-99999.0,'11111222,11111222,99999999' 
TABS,ioos:station:wmo:42050:1,2007-05-04T23:00:00Z,28.8425,-94.2433,2.0,205.9988877,23.99865205,-99999.0,'11111222,11111222,99999999' 
TABS,ioos:station:wmo:42050:1,2007-05-04T23:30:00Z,28.8425,-94.2433,2.0,210.0004472,24.99944999,-99999.0,'11111222,11111222,99999999' 
TABS,ioos:station:wmo:42050:1,2007-05-05T00:00:00Z,28.8425,-94.2433,2.0,217.9973043,24.99884197,-99999.0,'11111222,11111222,99999999' 
TABS,ioos:station:wmo:42050:1,2007-05-05T00:30:00Z,28.8425,-94.2433,2.0,218.9958108,29.00196717,-99999.0,'11111222,11111222,99999999' 
TABS,ioos:station:wmo:42050:1,2007-05-05T01:00:00Z,28.8425,-94.2433,2.0,227.9969767,32.99631495,-99999.0,'11111222,11111222,99999999' 
TABS,ioos:station:wmo:42050:1,2007-05-05T01:30:00Z,28.8425,-94.2433,2.0,239.0021176,31.99992656,-99999.0,'11111222,11111222,99999999' 
TABS,ioos:station:wmo:42050:1,2007-05-05T02:00:00Z,28.8425,-94.2433,2.0,251.0009958,27.00083332,-99999.0,'11111222,11111222,99999999' 
TABS,ioos:station:wmo:42050:1,2007-05-05T02:30:00Z,28.8425,-94.2433,2.0,251.9972175,30.99752893,-99999.0,'11111222,11111222,99999999' 
TABS,ioos:station:wmo:42050:1,2007-05-05T03:00:00Z,28.8425,-94.2433,2.0,259.99266,31.9967764,-99999.0,'11111222,11111222,99999999' 
TABS,ioos:station:wmo:42050:1,2007-05-05T03:30:00Z,28.8425,-94.2433,2.0,267.0022867,34.99787708,-99999.0,'11111222,11111222,99999999' 
TABS,ioos:station:wmo:42050:1,2007-05-05T04:00:00Z,28.8425,-94.2433,2.0,270.0004209,34.0,-99999.0,'11111222,11111222,99999999' 
TABS,ioos:station:wmo:42050:1,2007-05-05T04:30:00Z,28.8425,-94.2433,2.0,270.0004209,25.0,-99999.0,'11111222,11111222,99999999' 
TABS,ioos:station:wmo:42050:1,2007-05-06T05:00:00Z,28.8425,-94.2433,2.0,281.003936,22.00454499,-99999.0,'11111222,11111222,99999999' 
TABS,ioos:station:wmo:42050:1,2007-05-06T06:00:00Z,28.8425,-94.2433,2.0,286.9954334,17.99588008,-99999.0,'11111222,11111222,99999999' 
TABS,ioos:station:wmo:42050:1,2007-05-06T06:30:00Z,28.8425,-94.2433,2.0,290.9838958,16.00114058,-99999.0,'11111222,11111222,99999999' 
TABS,ioos:station:wmo:42050:1,2007-05-06T07:00:00Z,28.8425,-94.2433,2.0,290.0092489,18.99664444,-99999.0,'11111222,11111222,99999999' 
TABS,ioos:station:wmo:42050:1,2007-05-06T07:30:00Z,28.8425,-94.2433,2.0,286.9954334,17.99588008,-99999.0,'11111222,11111222,99999999' 
TABS,ioos:station:wmo:42050:1,2007-05-06T08:30:00Z,28.8425,-94.2433,2.0,298.9927611,17.00042647,-99999.0,'11111222,11111222,99999999' 
TABS,ioos:station:wmo:42050:1,2007-05-06T09:00:00Z,28.8425,-94.2433,2.0,290.01612,17.99704698,-99999.0,'11111222,11111222,99999999' 
TABS,ioos:station:wmo:42050:1,2007-05-06T09:30:00Z,28.8425,-94.2433,2.0,308.0102037,18.99976052,-99999.0,'11111222,11111222,99999999' 
TABS,ioos:station:wmo:42050:1,2007-05-06T10:00:00Z,28.8425,-94.2433,2.0,313.9994121,17.00144112,-99999.0,'11111222,11111222,99999999' 
TABS,ioos:station:wmo:42050:1,2007-05-06T10:30:00Z,28.8425,-94.2433,2.0,313.9872357,15.99725601,-99999.0,'11111222,11111222,99999999' 
TABS,ioos:station:wmo:42050:1,2007-05-06T11:00:00Z,28.8425,-94.2433,2.0,308.0081357,13.99876066,-99999.0,'11111222,11111222,99999999' 
TABS,ioos:station:wmo:42050:1,2007-05-06T11:30:00Z,28.8425,-94.2433,2.0,309.0043767,12.99701504,-99999.0,'11111222,11111222,99999999' 
TABS,ioos:station:wmo:42050:1,2007-05-06T12:00:00Z,28.8425,-94.2433,2.0,302.0100679,13.99833204,-99999.0,'11111222,11111222,99999999' 
TABS,ioos:station:wmo:42050:1,2007-05-06T12:30:00Z,28.8425,-94.2433,2.0,321.0017338,13.99966071,-99999.0,'11111222,11111222,99999999' 
TABS,ioos:station:wmo:42050:1,2007-05-06T13:00:00Z,28.8425,-94.2433,2.0,305.0051609,10.99982727,-99999.0,'11111222,11111222,99999999' 
TABS,ioos:station:wmo:42050:1,2007-05-06T13:30:00Z,28.8425,-94.2433,2.0,301.99561,12.00341618,-99999.0,'11111222,11111222,99999999' 
TABS,ioos:station:wmo:42050:1,2007-05-06T14:00:00Z,28.8425,-94.2433,2.0,288.0004534,9.999409983,-99999.0,'11133222,11111222,99999999' 